Regional Weather Roundup
Issued by NWS Albany, NY

Home | Current Version | Previous Version | Text Only | Print | Product List | Glossary On
Versions: 1 2 3 4 5 6 7 8 9 10 11 12 13 14 15 16 17 18 19 20 21 22 23 24 25 26 27 28 29 30 31 32 33 34 35 36 37 38 39 40 41 42 43 44 45 46 47 48 49 50
439
ASUS41 KALY 111210
RWRALY

NEW YORK STATE HOURLY WEATHER ROUNDUP
NATIONAL WEATHER SERVICE ALBANY NY
700 AM EST THU FEB 11 2016

NOTE: "FAIR" INDICATES FEW OR NO CLOUDS BELOW 12,000 FEET WITH NO
SIGNIFICANT WEATHER AND/OR NO OBSTRUCTIONS TO VISIBILITY.

NYZ032-033-038>043-046>054-057>066-NYZ062>081-111300-
EAST


CITY           SKY/WX    TMP DP  RH WIND       PRES   REMARKS
ALBANY         CLOUDY    20   7  57 W14G20    29.78R WCI   7
GLENS FALLS    CLOUDY    20   4  50 W7        29.74R WCI  11
POUGHKEEPSIE   PTCLDY    22   1  40 W12       29.82R WCI  10
NEWBURGH       CLEAR     19   7  58 W12G21    29.81R WCI   7
MONTGOMERY     CLEAR     19   3  49 W5        29.81R WCI  12
WHITE PLAINS   PTCLDY    20   3  48 NW16G26   29.80R WCI   6
ISLIP          PTCLDY    23   5  46 W14       29.80R WCI  11
NEW YORK CITY  PTCLDY    25   5  42 W17G28    29.86R WCI  12
CENTRAL PARK   PTCLDY    23   0  36 NW8G18    29.87R WCI  14
$$

NYZ005>009-017-018-044>046-055-056-111300-
CENTRAL


CITY           SKY/WX    TMP DP  RH WIND       PRES   REMARKS
FULTON         LGT SNOW  16   8  71 W20       29.81R WCI  -1
SYRACUSE       LGT SNOW  13   7  77 W20       29.81R BLWGSNOWWCI  -5
ROME           CLOUDY    15   6  67 W13       29.79R WCI   1
ELMIRA         MOCLDY    13   7  77 SW9       29.83R WCI   1
BINGHAMTON     CLOUDY     9   5  84 W9        29.73S WCI  -4
MONTICELLO     CLEAR     10   1  67 W10G16    29.74S WCI  -3
$$

NYZ026>034-041>043-111300-
NORTH


CITY           SKY/WX    TMP DP  RH WIND       PRES   REMARKS
WATERTOWN      LGT SNOW   8   4  83 N5        29.81R FOG     WCI   0
FORT DRUM      NOT AVBL
MASSENA        LGT SNOW   7   0  73 W12       29.80R WCI  -8
SARANAC LAKE   CLOUDY     9   5  84 VRB3      29.59R FOG
PLATTSBURGH    CLOUDY    17   8  67 CALM      29.71R
$$

NYZ001>004-010>016-019>021-111300-
WEST


CITY           SKY/WX    TMP DP  RH WIND       PRES   REMARKS
NIAGARA FALLS  PTCLDY    11  -2  56 NW18      29.93R WCI  -7
BUFFALO        FLURRIES   8  -1  66 W15G23    29.92R WCI  -9
DUNKIRK        CLOUDY    12   2  64 NW18G32   29.98R WCI  -6
JAMESTOWN      CLOUDY    10   3  72 NW13      29.84R WCI  -5
WELLSVILLE     LGT SNOW   9   3  77 NW13      29.77R VSB 1   WCI  -7
ROCHESTER      LGT SNOW  12   6  77 NW13G22   29.88R BLWGSNOWWCI  -3
PENN YAN       CLOUDY    12   2  64 W16G22    29.82R WCI  -5
$$

             KEY
       WCI = WIND CHILL INDEX
       VSB = VISIBILITY
       HX  = HEAT INDEX
$$




USA.gov is the U.S. government's official web portal to all federal, state and local government web resources and services.